• In Czech Republic
  • List of Countries
  • For 7 days
  • Water Temperature
  • Satellite Maps
  • Weather Map
  • Weather Widgets
  • user-avatar
    Login

    Hourly Weather Fredericton

    Today, 25 February, Sunday

    Time Temperature Precipitation Wind Pressure Humidity
    00:00 -7°C° 0 mm 3 mps 768 mmHg 68%
    01:00 -8°C° 0 mm 3 mps 768 mmHg 69%
    02:00 -8°C° 0 mm 3 mps 769 mmHg 69%
    03:00 -8°C° 0 mm 2 mps 769 mmHg 69%
    04:00 -8°C° 0 mm 2 mps 770 mmHg 68%
    05:00 -9°C° 0 mm 2 mps 770 mmHg 67%
    06:00 -9°C° 0 mm 2 mps 770 mmHg 68%
    07:00 -9°C° 0 mm 2 mps 770 mmHg 68%
    08:00 -9°C° 0 mm 2 mps 771 mmHg 68%
    09:00 -8°C° 0 mm 2 mps 770 mmHg 65%
    10:00 -8°C° 0 mm 3 mps 770 mmHg 62%
    11:00 -6°C° 0 mm 3 mps 770 mmHg 59%
    12:00 -6°C° 0 mm 3 mps 769 mmHg 58%
    13:00 -5°C° 0 mm 3 mps 768 mmHg 57%
    14:00 -4°C° 0 mm 3 mps 768 mmHg 56%
    15:00 -4°C° 0 mm 3 mps 767 mmHg 58%
    16:00 -4°C° 0 mm 3 mps 766 mmHg 59%
    17:00 -4°C° 0 mm 3 mps 765 mmHg 60%
    18:00 -4°C° 0.6 mm 3 mps 765 mmHg 70%
    19:00 -4°C° 0.6 mm 3 mps 764 mmHg 79%
    20:00 -4°C° 0.6 mm 3 mps 763 mmHg 89%
    21:00 -2°C° 0.6 mm 3 mps 763 mmHg 89%
    22:00 -2°C° 0.6 mm 3 mps 762 mmHg 89%
    23:00 -1°C° 0.6 mm 3 mps 762 mmHg 89%

    Tomorrow, 26 February, Monday

    Time Temperature Precipitation Wind Pressure Humidity
    00:00 -1°C° 0.2 mm 3 mps 761 mmHg 90%
    01:00 -1°C° 0.2 mm 3 mps 760 mmHg 91%
    02:00 0°C° 0.2 mm 3 mps 760 mmHg 92%
    03:00 0°C° 0.2 mm 3 mps 759 mmHg 93%
    04:00 +1°C° 0.2 mm 2 mps 759 mmHg 94%
    05:00 +1°C° 0.2 mm 2 mps 758 mmHg 95%
    06:00 +2°C° 0.3 mm 2 mps 758 mmHg 96%
    07:00 +3°C° 0.3 mm 1 mps 757 mmHg 97%
    08:00 +3°C° 0.3 mm 1 mps 757 mmHg 97%
    09:00 +3°C° 0.1 mm 2 mps 757 mmHg 95%
    10:00 +4°C° 0.1 mm 2 mps 756 mmHg 92%
    11:00 +4°C° 0.1 mm 2 mps 756 mmHg 89%
    12:00 +4°C° 0 mm 3 mps 756 mmHg 81%
    13:00 +5°C° 0 mm 4 mps 755 mmHg 73%
    14:00 +6°C° 0 mm 4 mps 755 mmHg 65%
    15:00 +5°C° 0 mm 4 mps 755 mmHg 65%
    16:00 +4°C° 0 mm 4 mps 755 mmHg 66%
    17:00 +3°C° 0 mm 4 mps 755 mmHg 67%
    18:00 0°C° 0 mm 4 mps 755 mmHg 70%
    19:00 -1°C° 0 mm 4 mps 756 mmHg 73%
    20:00 -1°C° 0 mm 3 mps 757 mmHg 76%
    21:00 -1°C° 0 mm 3 mps 757 mmHg 77%
    22:00 -2°C° 0 mm 3 mps 757 mmHg 77%
    23:00 -2°C° 0 mm 3 mps 758 mmHg 77%

    Day after tomorrow, 27 February, Tuesday

    Time Temperature Precipitation Wind Pressure Humidity
    00:00 -2°C° 0 mm 3 mps 758 mmHg 78%
    01:00 -4°C° 0 mm 3 mps 758 mmHg 79%
    02:00 -4°C° 0 mm 3 mps 759 mmHg 80%
    03:00 -4°C° 0 mm 3 mps 759 mmHg 79%
    04:00 -4°C° 0 mm 3 mps 759 mmHg 78%
    05:00 -4°C° 0 mm 4 mps 760 mmHg 78%
    06:00 -4°C° 0 mm 4 mps 760 mmHg 76%
    07:00 -4°C° 0 mm 4 mps 761 mmHg 74%
    08:00 -4°C° 0 mm 4 mps 761 mmHg 72%
    09:00 -4°C° 0 mm 5 mps 762 mmHg 67%
    10:00 -3°C° 0 mm 6 mps 762 mmHg 62%
    11:00 -3°C° 0 mm 6 mps 762 mmHg 57%
    12:00 -2°C° 0 mm 6 mps 762 mmHg 57%
    13:00 -2°C° 0 mm 6 mps 762 mmHg 57%
    14:00 -1°C° 0 mm 6 mps 762 mmHg 57%
    15:00 0°C° 0 mm 5 mps 762 mmHg 58%
    16:00 0°C° 0 mm 5 mps 762 mmHg 60%
    17:00 -1°C° 0 mm 4 mps 762 mmHg 61%
    18:00 -1°C° 0 mm 3 mps 762 mmHg 68%
    19:00 -2°C° 0 mm 2 mps 763 mmHg 74%
    20:00 -1°C° 0 mm 1 mps 763 mmHg 80%
    21:00 -1°C° 0 mm 1 mps 763 mmHg 82%
    22:00 -1°C° 0 mm 1 mps 763 mmHg 83%
    23:00 -1°C° 0 mm 1 mps 763 mmHg 85%

    28 February, Wednesday

    Time Temperature Precipitation Wind Pressure Humidity
    00:00 -1°C° 0 mm 1 mps 763 mmHg 84%
    01:00 -1°C° 0 mm 1 mps 763 mmHg 84%
    02:00 -1°C° 0 mm 1 mps 762 mmHg 84%
    03:00 -1°C° 0 mm 1 mps 762 mmHg 84%
    04:00 -1°C° 0 mm 1 mps 761 mmHg 84%
    05:00 -1°C° 0 mm 1 mps 761 mmHg 84%
    06:00 0°C° 0 mm 1 mps 760 mmHg 83%
    07:00 0°C° 0 mm 1 mps 760 mmHg 82%
    08:00 -2°C° 0 mm 2 mps 760 mmHg 81%
    09:00 -1°C° 0.2 mm 2 mps 760 mmHg 78%
    10:00 +1°C° 0.2 mm 2 mps 759 mmHg 76%
    11:00 +3°C° 0.2 mm 2 mps 759 mmHg 74%
    12:00 +3°C° 0.4 mm 2 mps 759 mmHg 76%
    13:00 +3°C° 0.4 mm 2 mps 758 mmHg 78%
    14:00 +3°C° 0.4 mm 2 mps 758 mmHg 81%
    15:00 +3°C° 0 mm 2 mps 758 mmHg 81%
    16:00 +4°C° 0 mm 1 mps 759 mmHg 82%
    17:00 +4°C° 0 mm 1 mps 759 mmHg 83%
    18:00 +3°C° 0 mm 1 mps 759 mmHg 85%
    19:00 +2°C° 0 mm 1 mps 760 mmHg 88%
    20:00 +1°C° 0 mm 1 mps 760 mmHg 90%
    21:00 0°C° 0 mm 1 mps 761 mmHg 90%
    22:00 0°C° 0 mm 1 mps 761 mmHg 90%
    23:00 0°C° 0 mm 1 mps 762 mmHg 90%

    1 March, Thursday

    Time Temperature Precipitation Wind Pressure Humidity
    00:00 0°C° 0 mm 1 mps 762 mmHg 91%
    01:00 -1°C° 0 mm 1 mps 762 mmHg 92%
    02:00 -1°C° 0 mm 1 mps 763 mmHg 93%
    03:00 -1°C° 0 mm 1 mps 763 mmHg 94%
    04:00 -1°C° 0 mm 1 mps 764 mmHg 94%
    05:00 -1°C° 0 mm 1 mps 764 mmHg 94%
    06:00 -1°C° 0 mm 1 mps 764 mmHg 92%
    07:00 -3°C° 0 mm 2 mps 765 mmHg 91%
    08:00 -2°C° 0 mm 2 mps 765 mmHg 89%
    09:00 -2°C° 0 mm 2 mps 766 mmHg 84%
    10:00 -1°C° 0 mm 2 mps 766 mmHg 79%
    11:00 +1°C° 0 mm 2 mps 766 mmHg 73%
    12:00 0°C° 0 mm 3 mps 766 mmHg 72%
    13:00 +1°C° 0 mm 3 mps 766 mmHg 70%
    14:00 +1°C° 0 mm 3 mps 766 mmHg 68%
    15:00 +1°C° 0 mm 3 mps 766 mmHg 69%
    16:00 +1°C° 0 mm 3 mps 766 mmHg 70%
    17:00 0°C° 0 mm 3 mps 766 mmHg 71%
    18:00 -1°C° 0 mm 3 mps 766 mmHg 75%
    19:00 -1°C° 0 mm 3 mps 766 mmHg 79%
    20:00 -2°C° 0 mm 3 mps 767 mmHg 83%
    21:00 -4°C° 0 mm 3 mps 766 mmHg 84%
    22:00 -4°C° 0 mm 3 mps 766 mmHg 85%
    23:00 -5°C° 0 mm 4 mps 766 mmHg 87%

    2 March, Friday

    Time Temperature Precipitation Wind Pressure Humidity
    00:00 -4°C° 0 mm 4 mps 766 mmHg 85%
    01:00 -4°C° 0 mm 4 mps 765 mmHg 84%
    02:00 -4°C° 0 mm 4 mps 765 mmHg 82%
    03:00 -5°C° 0 mm 4 mps 765 mmHg 82%
    04:00 -6°C° 0 mm 5 mps 764 mmHg 82%
    05:00 -6°C° 0 mm 5 mps 763 mmHg 83%
    06:00 -6°C° 0 mm 5 mps 763 mmHg 82%
    07:00 -6°C° 0 mm 5 mps 763 mmHg 81%
    08:00 -6°C° 0 mm 5 mps 762 mmHg 81%
    09:00 -5°C° 0 mm 5 mps 762 mmHg 79%
    10:00 -4°C° 0 mm 6 mps 761 mmHg 77%
    11:00 -3°C° 0 mm 6 mps 761 mmHg 75%
    12:00 -2°C° 0 mm 6 mps 760 mmHg 76%
    13:00 -2°C° 0 mm 6 mps 759 mmHg 77%
    14:00 -1°C° 0 mm 6 mps 759 mmHg 78%
    15:00 -1°C° 0 mm 6 mps 759 mmHg 79%
    16:00 +1°C° 0 mm 6 mps 759 mmHg 81%
    17:00 +1°C° 0 mm 6 mps 759 mmHg 82%
    18:00 +1°C° 0 mm 6 mps 759 mmHg 82%
    19:00 -1°C° 0 mm 6 mps 760 mmHg 83%
    20:00 -1°C° 0 mm 6 mps 760 mmHg 83%
    21:00 -1°C° 0.1 mm 6 mps 761 mmHg 82%
    22:00 -2°C° 0.1 mm 6 mps 761 mmHg 81%
    23:00 -2°C° 0.1 mm 6 mps 761 mmHg 80%
    Show more